Change the Weather History Date:

Saturday, November 5, 2011

  Actual Average Record
Temperature  
Mean Temperature 42 °F -  
Max Temperature 51 °F 54 °F 74 °F (2005)
Min Temperature 32 °F 38 °F 23 °F (1998)
Degree Days  
Heating Degree Days 23    
Month to date heating degree days 92  
Moisture  
Dew Point 24 °F    
Average Humidity 49    
Maximum Humidity 72    
Minimum Humidity 26    
Precipitation  
Precipitation 0.00 in - - ()
Month to date precipitation 0.00  
Year to date precipitation 40.39  
Sea Level Pressure  
Sea Level Pressure 30.44 in    
Wind  
Wind Speed 6 mph (NE)    
Max Wind Speed 15 mph    
Max Gust Speed 18 mph    
Visibility 10 miles    
Events      
Averages and records for this station are not official NWS values.
T = Trace of Precipitation, MM = Missing Value Source: NWS Daily Summary

Daily Weather History Graph

Daily Weather History Graph

Search for Another Location

Airport or City:

Trip Planner

Search our weather history database for the weather conditions in past years. The results will help you decide how hot, cold, wet, or windy it might be!

Date:

Astronomy

Nov. 05, 2011 Rise Set
Actual Time 7:43 AM EDT 6:04 PM EDT
Civil Twilight 7:15 AM EDT 6:32 PM EDT
Nautical Twilight 6:43 AM EDT 7:05 PM EDT
Astronomical Twilight 6:11 AM EDT 7:36 PM EDT
Moon 3:21 PM EDT (11/5) 2:52 AM EDT (11/5)
Length of Visible Light 11h 17m
Length of Day
10h 21m
Waxing Gibbous, 78% of the Moon is Illuminated
Nov 5
Waxing Gibbous
Nov 10
Full
Nov 18
Last Quarter
Nov 25
New
Dec 2
First Quarter

Hourly Weather History & Observations

Time (EDT) Temp. Windchill Dew Point Humidity Pressure Visibility Wind Dir Wind Speed Gust Speed Precip Events Conditions
12:53 AM 39.9 °F 31.8 °F 25.0 °F 55% 30.32 in 10.0 mi NNE 15.0 mph 24.2 mph N/A   Clear
1:53 AM 37.0 °F 31.6 °F 25.0 °F 62% 30.35 in 10.0 mi North 6.9 mph - N/A   Clear
3:53 AM 35.1 °F 28.6 °F 25.0 °F 67% 30.35 in 10.0 mi North 8.1 mph - N/A   Clear
4:53 AM 34.0 °F 27.2 °F 25.0 °F 70% 30.37 in 10.0 mi North 8.1 mph - N/A   Clear
5:53 AM 33.1 °F 25.5 °F 25.0 °F 72% 30.39 in 10.0 mi North 9.2 mph - N/A   Clear
6:53 AM 32.0 °F 23.6 °F 25.0 °F 75% 30.41 in 10.0 mi North 10.4 mph - N/A   Clear
9:53 AM 37.9 °F 32.7 °F 26.1 °F 62% 30.49 in 10.0 mi North 6.9 mph - N/A   Clear
12:53 PM 45.0 °F - 26.1 °F 48% 30.49 in 10.0 mi Calm Calm - N/A   Clear
1:53 PM 48.0 °F - 25.0 °F 41% 30.47 in 10.0 mi Variable 3.5 mph - N/A   Clear
2:53 PM 51.1 °F - 26.1 °F 38% 30.46 in 10.0 mi NNE 4.6 mph - N/A   Clear
3:53 PM 51.1 °F - 25.0 °F 36% 30.45 in 10.0 mi Variable 3.5 mph - N/A   Clear
4:53 PM 51.1 °F - 18.0 °F 27% 30.45 in 10.0 mi East 5.8 mph - N/A   Clear
5:53 PM 48.0 °F - 21.0 °F 34% 30.45 in 10.0 mi East 4.6 mph - N/A   Clear
6:53 PM 46.0 °F - 21.9 °F 39% 30.46 in 10.0 mi Calm Calm - N/A   Clear
7:53 PM 45.0 °F 42.6 °F 21.9 °F 40% 30.47 in 10.0 mi ESE 4.6 mph - N/A   Clear
8:53 PM 41.0 °F 39.0 °F 24.1 °F 51% 30.48 in 10.0 mi ESE 3.5 mph - N/A   Clear
9:53 PM 39.9 °F 35.8 °F 24.1 °F 53% 30.49 in 10.0 mi ESE 5.8 mph - N/A   Clear
10:53 PM 39.0 °F 34.8 °F 24.1 °F 55% 30.50 in 10.0 mi SE 5.8 mph - N/A   Clear
11:53 PM 37.0 °F 32.4 °F 24.1 °F 59% 30.51 in 10.0 mi ESE 5.8 mph - N/A   Clear